This is the latest recevied weather packets stored in our database for station/object AC5CM. If no packets are shown the sender has not sent any weather packets the latest 10 day(s).
| Time | Temp. | Humidity | Pressure | Rain* | Wind** | Luminosity | Snow |
|---|---|---|---|---|---|---|---|
| 1777921163 | 28.33° C | 52% | 1014.5 hPa | 0 mm | - | - | - |
| 1777920860 | 27.78° C | 55% | 1014.9 hPa | 0 mm | - | - | - |
| 1777920556 | 27.78° C | 54% | 1014.6 hPa | 0 mm | - | - | - |
| 1777920252 | 28.33° C | 54% | 1014.8 hPa | 0 mm | - | - | - |
| 1777919948 | 27.78° C | 52% | 1014.9 hPa | 0 mm | - | - | - |
| 1777919645 | 27.78° C | 53% | 1014.8 hPa | 0 mm | - | - | - |
| 1777919343 | 27.22° C | 56% | 1014.8 hPa | 0 mm | - | - | - |
| 1777919040 | 28.33° C | 53% | 1014.8 hPa | 0 mm | - | - | - |
| 1777918736 | 27.78° C | 55% | 1015 hPa | 0 mm | - | - | - |
| 1777918434 | 28.33° C | 50% | 1015.2 hPa | 0 mm | - | - | - |
| 1777918133 | 27.78° C | 55% | 1015 hPa | 0 mm | - | - | - |
| 1777917831 | 27.78° C | 54% | 1015.3 hPa | 0 mm | - | - | - |
| 1777917529 | 27.22° C | 54% | 1015.4 hPa | 0 mm | - | - | - |
| 1777917225 | 27.22° C | 55% | 1015.5 hPa | 0 mm | - | - | - |
| 1777916923 | 27.22° C | 55% | 1015.5 hPa | 0 mm | - | - | - |
| 1777916621 | 27.78° C | 54% | 1015.7 hPa | 0 mm | - | - | - |
| 1777916317 | 27.78° C | 53% | 1015.5 hPa | 0 mm | - | - | - |
| 1777916014 | 27.78° C | 55% | 1015.6 hPa | 0 mm | - | - | - |
| 1777915711 | 27.22° C | 53% | 1015.8 hPa | 0 mm | - | - | - |
| 1777915408 | 26.67° C | 56% | 1016 hPa | 0 mm | - | - | - |
| 1777915104 | 27.22° C | 54% | 1016 hPa | 0 mm | - | - | - |
| 1777914801 | 26.11° C | 58% | 1016 hPa | 0 mm | - | - | - |
| 1777914498 | 26.67° C | 55% | 1016.3 hPa | 0 mm | - | - | - |
| 1777914195 | 26.11° C | 56% | 1016.3 hPa | 0 mm | - | - | - |
| 1777913891 | 26.67° C | 56% | 1016.3 hPa | 0 mm | - | - | - |
* Rain latest hour (hover to see other rain measurements)
** Current wind speed in m/s (hover to see current wind gust speed)